User: anonymous   Login
Location: Salamanca
(40.9670°N, 5.6500°W)
Time: 12:47:24
(UTC+01:00)
Language:

Cosmos 1633 Rocket - Orbit

View from above orbital plane
View from above orbital plane
View from above satellite
View from above satellite

Ground track
Ground track

The orbit data is extracted from the following two-line orbital elements,

1 15593U 85020B   16039.88398179  .00000293  00000-0  32223-4 0  9990
2 15593  82.5388   5.1738 0010445 227.3279 189.7524 14.84171216671059
Epoch (UTC): 08 February 2016 21:12:56
Eccentricity: 0.0010445
inclination: 82.5388°
perigee height: 609 km
apogee height: 623 km
right ascension of ascending node: 5.1738°
argument of perigee: 227.3279°
revolutions per day: 14.84171216
mean anomaly at epoch: 189.7524°
orbit number at epoch: 67105

The dashed part of the orbit path shows where the satellite is in the earth's shadow,  

DLR